Home   Weather   Greater Sudbury   Past weeks

Flag for Canada Past Weather in Greater Sudbury, Ontario, Canada — Yesterday and Last 2 Weeks

Now
16 °F

Overcast.


Feels Like: 4 °F
Forecast: N/A
Wind: 9 mph from Northwest

Location: Sudbury

Current Time: Dec 9, 2016 at 4:19:01 pm

Latest Report: Dec 9, 2016 at 3:00 pm


Visibility: 20 mi

Pressure: 30.31 "Hg

Humidity: 57%

Dew Point: 3 °F

Location of Greater SudburyLocation

Past Weather in Greater Sudbury — Graph

°F

Greater Sudbury Temperature Yesterday

Maximum temperature yesterday: 25 °F (at 2:00 pm)
Minimum temperature yesterday: 12 °F (at 11:00 pm)
Average temperature yesterday: 20 °F

High & Low Weather Summary for the Past Weeks

 TemperatureHumidityPressure
High50 °F (Nov 29, 2:00 pm)100% (Nov 24, 11:00 pm)30.33 "Hg (Nov 24, 11:00 pm)
Low12 °F (Dec 8, 11:00 pm)57% (Dec 9, 12:00 pm)29.38 "Hg (Dec 1, 2:00 am)
Average29 °F86%29.93 "Hg
* Reported Nov 24 3:00 pm — Dec 9 3:00 pm, Greater Sudbury, Weather by CustomWeather, © 2016

Note: Actual official high and low records may vary slightly from our data, if they occured in-between our weather recording intervals... More about our weather records

Advertising

Greater Sudbury Weather History for the Previous 24 Hours

Scroll right to see more
 ConditionsComfort  
Time TempWeatherWind HumidityBarometerVisibility
3:00 pm
Fri, Dec 9
16 °FOvercast.9 mph57%30.31 "Hg20 mi
2:00 pm16 °FLight snow. Overcast.8 mph57%30.30 "Hg20 mi
1:00 pm16 °FLight snow. Partly sunny.8 mph57%30.29 "Hg15 mi
12:00 pm16 °FLight snow. Partly sunny.13 mph57%30.30 "Hg15 mi
11:00 am16 °FLight snow. Overcast.13 mph62%30.30 "Hg15 mi
10:00 am14 °FLight snow. Overcast.12 mph67%30.29 "Hg20 mi
9:00 am14 °FLight snow. Overcast.7 mph67%30.26 "Hg20 mi
8:00 am14 °FLight snow. Overcast.12 mph67%30.24 "Hg20 mi
7:00 am14 °FLight snow. Overcast.17 mph67%30.22 "Hg15 mi
6:00 am16 °FSnow flurries. Overcast.16 mph62%30.19 "Hg15 mi
5:00 am16 °FSnow flurries. Overcast.10 mph73%30.17 "Hg15 mi
4:00 am16 °FSnow flurries. Overcast.10 mph79%30.15 "Hg15 mi
3:00 am16 °FSnow flurries. Overcast.7 mph86%30.13 "Hg15 mi
2:00 am14 °FPassing clouds.6 mph79%30.11 "Hg15 mi
1:00 am14 °FPassing clouds.8 mph79%30.09 "Hg15 mi
12:00 am12 °FPassing clouds.5 mph85%30.08 "Hg15 mi
11:00 pm
Thu, Dec 8
12 °FPassing clouds.9 mph85%30.05 "Hg15 mi
10:00 pm16 °FSnow flurries. Passing clouds.12 mph79%30.04 "Hg15 mi
9:00 pm18 °FPassing clouds.14 mph73%30.01 "Hg15 mi
8:00 pm18 °FLow level haze.13 mph79%29.99 "Hg15 mi
7:00 pm19 °FPassing clouds.14 mph73%29.97 "Hg15 mi
6:00 pm21 °FPassing clouds.14 mph74%29.94 "Hg15 mi
5:00 pm21 °FSnow flurries. Overcast.12 mph80%29.90 "Hg10 mi
4:00 pm23 °FMore clouds than sun.12 mph68%29.88 "Hg20 mi
Weather by CustomWeather, © 2016

See weather overviewHow to use our weather pages